When you browse on this site, cookies collect data to enhance your experience and personalize the content and advertising you see.
Visit our Privacy Policy to learn more. By continuing to use the site, you agree to this use of cookies and data.
  • In France
  • List of Countries
  • For 7 days
  • Water Temperature
  • Satellite Maps
  • Weather Map
  • Weather Widgets
  • user-avatar
    Login

    Hourly Weather Myshkovo

    Today, 19 February, Tuesday

    Time Temperature Precipitation Wind Pressure Humidity
    00:00 -6°C° 0 mm 3 mps 752 mmHg 82%
    01:00 -6°C° 0 mm 3 mps 751 mmHg 80%
    02:00 -5°C° 0 mm 4 mps 751 mmHg 79%
    03:00 -5°C° 0 mm 4 mps 750 mmHg 77%
    04:00 -5°C° 0 mm 4 mps 750 mmHg 76%
    05:00 -5°C° 0 mm 4 mps 749 mmHg 74%
    06:00 -5°C° 0 mm 4 mps 749 mmHg 75%
    07:00 -5°C° 0 mm 4 mps 748 mmHg 75%
    08:00 -5°C° 0 mm 4 mps 748 mmHg 75%
    09:00 -5°C° 0 mm 5 mps 747 mmHg 75%
    10:00 -2°C° 0 mm 5 mps 747 mmHg 75%
    11:00 -1°C° 0 mm 5 mps 746 mmHg 75%
    12:00 -1°C° 0 mm 5 mps 745 mmHg 75%
    13:00 0°C° 0 mm 5 mps 745 mmHg 76%
    14:00 +1°C° 0 mm 5 mps 744 mmHg 76%
    15:00 0°C° 0 mm 5 mps 744 mmHg 79%
    16:00 -1°C° 0 mm 5 mps 743 mmHg 82%
    17:00 -1°C° 0 mm 5 mps 742 mmHg 85%
    18:00 -1°C° 0 mm 5 mps 742 mmHg 86%
    19:00 -1°C° 0 mm 5 mps 741 mmHg 87%
    20:00 -1°C° 0 mm 5 mps 740 mmHg 88%
    21:00 0°C° 0 mm 5 mps 740 mmHg 89%
    22:00 0°C° 0 mm 5 mps 739 mmHg 89%
    23:00 0°C° 0 mm 4 mps 738 mmHg 90%

    Tomorrow, 20 February, Wednesday

    Time Temperature Precipitation Wind Pressure Humidity
    00:00 0°C° 0.1 mm 4 mps 738 mmHg 90%
    01:00 0°C° 0.1 mm 4 mps 737 mmHg 90%
    02:00 0°C° 0.1 mm 4 mps 737 mmHg 90%
    03:00 0°C° 0.1 mm 4 mps 737 mmHg 91%
    04:00 0°C° 0.1 mm 4 mps 737 mmHg 92%
    05:00 0°C° 0.1 mm 4 mps 736 mmHg 92%
    06:00 0°C° 0.1 mm 4 mps 736 mmHg 92%
    07:00 0°C° 0.1 mm 4 mps 736 mmHg 92%
    08:00 0°C° 0.1 mm 4 mps 736 mmHg 93%
    09:00 0°C° 0.1 mm 4 mps 736 mmHg 91%
    10:00 +1°C° 0.1 mm 4 mps 736 mmHg 89%
    11:00 +1°C° 0.1 mm 5 mps 736 mmHg 88%
    12:00 +1°C° 0.1 mm 5 mps 736 mmHg 85%
    13:00 +1°C° 0.1 mm 5 mps 735 mmHg 83%
    14:00 +1°C° 0.1 mm 4 mps 735 mmHg 80%
    15:00 +1°C° 0.2 mm 4 mps 735 mmHg 82%
    16:00 +1°C° 0.2 mm 4 mps 735 mmHg 84%
    17:00 0°C° 0.2 mm 4 mps 734 mmHg 86%
    18:00 0°C° 0.3 mm 4 mps 734 mmHg 82%
    19:00 -1°C° 0.3 mm 5 mps 734 mmHg 78%
    20:00 -2°C° 0.3 mm 5 mps 735 mmHg 75%
    21:00 -2°C° 0.1 mm 5 mps 735 mmHg 79%
    22:00 -4°C° 0.1 mm 5 mps 735 mmHg 82%
    23:00 -3°C° 0.1 mm 4 mps 735 mmHg 86%

    Day after tomorrow, 21 February, Thursday

    Time Temperature Precipitation Wind Pressure Humidity
    00:00 -4°C° 0.3 mm 5 mps 736 mmHg 85%
    01:00 -4°C° 0.3 mm 5 mps 736 mmHg 84%
    02:00 -4°C° 0.3 mm 6 mps 737 mmHg 83%
    03:00 -5°C° 0.1 mm 6 mps 737 mmHg 81%
    04:00 -5°C° 0.1 mm 6 mps 738 mmHg 79%
    05:00 -5°C° 0.1 mm 6 mps 738 mmHg 78%
    06:00 -6°C° 0.1 mm 6 mps 739 mmHg 76%
    07:00 -6°C° 0.1 mm 6 mps 739 mmHg 75%
    08:00 -8°C° 0.1 mm 6 mps 740 mmHg 74%
    09:00 -6°C° 0 mm 6 mps 741 mmHg 72%
    10:00 -6°C° 0 mm 6 mps 741 mmHg 71%
    11:00 -6°C° 0 mm 6 mps 742 mmHg 69%
    12:00 -6°C° 0.1 mm 6 mps 742 mmHg 69%
    13:00 -6°C° 0.1 mm 6 mps 743 mmHg 68%
    14:00 -6°C° 0.1 mm 6 mps 743 mmHg 67%
    15:00 -6°C° 0.1 mm 6 mps 744 mmHg 68%
    16:00 -8°C° 0.1 mm 6 mps 745 mmHg 70%
    17:00 -8°C° 0.1 mm 6 mps 746 mmHg 71%
    18:00 -9°C° 0 mm 6 mps 747 mmHg 71%
    19:00 -10°C° 0 mm 6 mps 747 mmHg 71%
    20:00 -10°C° 0 mm 6 mps 748 mmHg 72%
    21:00 -11°C° 0 mm 5 mps 749 mmHg 71%
    22:00 -11°C° 0 mm 5 mps 750 mmHg 71%
    23:00 -12°C° 0 mm 5 mps 750 mmHg 71%

    22 February, Friday

    Time Temperature Precipitation Wind Pressure Humidity
    00:00 -12°C° 0 mm 5 mps 751 mmHg 71%
    01:00 -12°C° 0 mm 5 mps 752 mmHg 71%
    02:00 -12°C° 0 mm 5 mps 753 mmHg 71%
    03:00 -13°C° 0 mm 5 mps 753 mmHg 71%
    04:00 -13°C° 0 mm 5 mps 754 mmHg 71%
    05:00 -13°C° 0 mm 5 mps 755 mmHg 72%
    06:00 -13°C° 0 mm 5 mps 755 mmHg 71%
    07:00 -13°C° 0 mm 5 mps 756 mmHg 71%
    08:00 -13°C° 0 mm 5 mps 757 mmHg 71%
    09:00 -12°C° 0 mm 5 mps 757 mmHg 68%
    10:00 -11°C° 0 mm 5 mps 758 mmHg 66%
    11:00 -11°C° 0 mm 5 mps 758 mmHg 64%
    12:00 -10°C° 0 mm 5 mps 758 mmHg 61%
    13:00 -8°C° 0 mm 5 mps 758 mmHg 58%
    14:00 -8°C° 0 mm 5 mps 758 mmHg 55%
    15:00 -8°C° 0 mm 5 mps 758 mmHg 59%
    16:00 -9°C° 0 mm 4 mps 758 mmHg 63%
    17:00 -9°C° 0 mm 4 mps 758 mmHg 67%
    18:00 -9°C° 0 mm 4 mps 759 mmHg 70%
    19:00 -11°C° 0 mm 5 mps 759 mmHg 73%
    20:00 -11°C° 0 mm 5 mps 760 mmHg 75%
    21:00 -11°C° 0 mm 5 mps 760 mmHg 75%
    22:00 -11°C° 0 mm 4 mps 761 mmHg 75%
    23:00 -11°C° 0 mm 4 mps 761 mmHg 76%

    23 February, Saturday

    Time Temperature Precipitation Wind Pressure Humidity
    00:00 -12°C° 0 mm 4 mps 761 mmHg 78%
    01:00 -12°C° 0 mm 3 mps 761 mmHg 80%
    02:00 -13°C° 0 mm 3 mps 762 mmHg 82%
    03:00 -13°C° 0 mm 3 mps 762 mmHg 82%
    04:00 -12°C° 0 mm 2 mps 761 mmHg 83%
    05:00 -12°C° 0 mm 2 mps 761 mmHg 84%
    06:00 -12°C° 0 mm 2 mps 761 mmHg 83%
    07:00 -12°C° 0 mm 2 mps 761 mmHg 82%
    08:00 -10°C° 0 mm 2 mps 761 mmHg 80%
    09:00 -10°C° 0 mm 2 mps 761 mmHg 74%
    10:00 -8°C° 0 mm 1 mps 761 mmHg 68%
    11:00 -7°C° 0 mm 1 mps 761 mmHg 62%
    12:00 -6°C° 0 mm 1 mps 761 mmHg 61%
    13:00 -6°C° 0 mm 1 mps 760 mmHg 61%
    14:00 -4°C° 0 mm 1 mps 760 mmHg 60%
    15:00 -6°C° 0 mm 1 mps 760 mmHg 65%
    16:00 -6°C° 0 mm 0 mps 760 mmHg 70%
    17:00 -6°C° 0 mm 0 mps 760 mmHg 75%
    18:00 -6°C° 0 mm 0 mps 760 mmHg 77%
    19:00 -7°C° 0 mm 1 mps 760 mmHg 79%
    20:00 -7°C° 0 mm 1 mps 760 mmHg 81%
    21:00 -8°C° 0 mm 1 mps 761 mmHg 81%
    22:00 -8°C° 0 mm 1 mps 761 mmHg 81%
    23:00 -8°C° 0 mm 1 mps 762 mmHg 81%

    24 February, Sunday

    Time Temperature Precipitation Wind Pressure Humidity
    00:00 -8°C° 0 mm 1 mps 762 mmHg 80%
    01:00 -8°C° 0 mm 1 mps 762 mmHg 79%
    02:00 -9°C° 0 mm 1 mps 762 mmHg 78%
    03:00 -9°C° 0 mm 1 mps 762 mmHg 78%
    04:00 -9°C° 0 mm 1 mps 763 mmHg 78%
    05:00 -9°C° 0 mm 1 mps 763 mmHg 78%
    06:00 -9°C° 0 mm 1 mps 763 mmHg 77%
    07:00 -9°C° 0 mm 1 mps 763 mmHg 76%
    08:00 -9°C° 0 mm 1 mps 763 mmHg 75%
    09:00 -8°C° 0 mm 2 mps 763 mmHg 71%
    10:00 -7°C° 0 mm 2 mps 763 mmHg 67%
    11:00 -6°C° 0 mm 2 mps 763 mmHg 63%
    12:00 -5°C° 0 mm 2 mps 762 mmHg 62%
    13:00 -5°C° 0 mm 3 mps 762 mmHg 61%
    14:00 -4°C° 0 mm 3 mps 761 mmHg 60%
    15:00 -5°C° 0 mm 3 mps 761 mmHg 63%
    16:00 -5°C° 0 mm 3 mps 760 mmHg 67%
    17:00 -6°C° 0 mm 3 mps 759 mmHg 71%
    18:00 -6°C° 0 mm 3 mps 759 mmHg 73%
    19:00 -7°C° 0 mm 4 mps 758 mmHg 74%
    20:00 -7°C° 0 mm 4 mps 757 mmHg 75%
    21:00 -7°C° 0 mm 4 mps 756 mmHg 79%
    22:00 -5°C° 0 mm 4 mps 755 mmHg 82%
    23:00 -5°C° 0 mm 4 mps 755 mmHg 85%
    Show more